Regional Weather Roundup
Issued by NWS Charleston, SC

Current Version | Previous Version | Text Only | Print | Product List | Glossary Off
Versions: 1 2 3 4 5 6 7 8 9 10 11 12 13 14 15 16 17 18 19 20 21 22 23 24 25 26 27 28 29 30 31 32 33 34 35 36 37 38 39 40 41 42 43 44 45 46 47 48 49 50

000
ASUS42 KCHS 050227
RWRCHS

REGIONAL WEATHER ROUNDUP
NATIONAL WEATHER SERVICE CHARLESTON SC
1000 PM EDT SAT JUL 04 2015

NOTE: "FAIR" INDICATES FEW OR NO CLOUDS BELOW 12,000 FEET WITH NO
SIGNIFICANT WEATHER AND/OR OBSTRUCTIONS TO VISIBILITY.

NOT ALL STATIONS ARE QUALITY CONTROLLED BY THE NATIONAL
WEATHER SERVICE. USE DATA WITH CAUTION...ESPECIALLY
DEWPOINT OBSERVATIONS.

SCZ027-030-031-034>040-042>050-050300-
...SOUTHEAST SOUTH CAROLINA...

CITY           SKY/WX    TMP DP  RH WIND       PRES   REMARKS
N CHARLESTON   CLOUDY    73  69  87 W6        30.08S
WATERFRONT PAR   N/A     75  71  87 VRB3      30.06F
MOUNT PLEASANT LGT RAIN  75  70  83 SW3       30.08S
JOHNS ISLAND   FAIR      73  72  94 CALM      30.09R
PINOPOLIS      NOT AVBL
MONCKS CORNER  FAIR      73  70  88 S5        30.07R
SUMMERVILLE    FAIR      72  72 100 S8        30.09R
BEAUFORT MCAS  CLOUDY    74  72  93 W5        30.10R
BEAUFORT ARPT  FAIR      73  73 100 CALM      30.10R
HILTON HEAD IS CLOUDY    73  73 100 CALM      30.11R
WALTERBORO     CLOUDY    72  70  94 S9        30.09F
ALLENDALE      FAIR      72  70  94 CALM      30.09F

...SOUTHERN MIDLANDS AND PEE DEE...

CITY           SKY/WX    TMP DP  RH WIND       PRES   REMARKS
GEORGETOWN     NOT AVBL
KINGSTREE      NOT AVBL
ORANGEBURG     CLOUDY    74  68  81 SW8       30.08S
BARNWELL       FAIR      73  70  88 SW5       30.10F
AIKEN          NOT AVBL
MANNING        LGT RAIN  75  64  69 SW7       30.07S
COLUMBIA       CLOUDY    82  69  64 SW8       30.05R
SUMTER         MOCLDY    80  69  69 S16G22    30.04R
FLORENCE       PTCLDY    81  71  71 S6        30.03S
MYRTLE BEACH   CLEAR     82  72  69 SW13G20   30.08R
N MYRTLE BEACH PTCLDY    82  76  81 SW16G28   30.06R

$$

GAZ063-065-086>088-099>101-113>116-118-119-134>141-150-050300-
...SOUTHEAST GEORGIA...

CITY           SKY/WX    TMP DP  RH WIND       PRES   REMARKS
SAVANNAH ARPT  CLOUDY    75  70  84 S3        30.11R
HUNTER AAF     CLOUDY    73  73 100 W5        30.08R
FORT STEWART   CLOUDY    74  71  91 SW5       30.10R
STATESBORO     NOT AVBL
SYLVANIA       MOCLDY    73  73  99 CALM      30.11S
CLAXTON        FAIR      73  73 100 W3        30.13R

...CSRA...CENTRAL AND FAR SOUTHEAST GEORGIA...

CITY           SKY/WX    TMP DP  RH WIND       PRES   REMARKS
THOMSON        MOCLDY    78  74  90 S3        30.13S
AUGUSTA-BUSH   MOCLDY    76  70  82 S10       30.08R
AUGUSTA-DANIEL MOCLDY    78  69  73 S8        30.10R
SWAINSBORO     FAIR     N/A N/A N/A S3        30.12R
VIDALIA        MOCLDY    73  72  94 S6        30.12R
EASTMAN        FAIR      75  75 100 S5        30.14R
HAZLEHURST     FAIR      74  74 100 CALM      30.12R
ALMA           CLOUDY    74  71  91 SW5       30.13R
WAYCROSS       CLOUDY    75  75  99 W5        30.14R
JESUP          FAIR      75  73  94 CALM      30.12R
BAXLEY         FAIR      73  72  94 CALM      30.13R
BRUNSWICK      CLOUDY    73  73 100 CALM      30.13R
SAINT SIMONS   CLOUDY    75  72  90 CALM      30.11R

$$

SCZ027-028-034-036>038-045-046-048>050-GAZ119-141-050300-
...LAKE AND SUPPLEMENTAL COASTAL OBSERVATIONS...

STATION/POSITION TIME  TEMP    WIND        PRES    WAVE   SWELL
                       AIR SEA DIR/SP/G            HT/PER HT/PER/DIR
                 (UTC) (F)     (DEG/KT/KT) (MB)    (FT/S) (FT/S/D)
UPR LAKE MARION  NOT AVBL
WINYAH BAY       0100   82     220/ 16     1017.0S
LAKE MURRAY      0100   83     220/  8/  9 1016.6R
ACE BASIN NERRS  NOT AVBL
FORT PULASKI     0200   76 84  220/  1/  2 1019.7R
SAPELO ISLAND    0200   77     220/ 10     1020.0R

$$

ANZ835-935-AMZ111-154-330-350-352-354-370-450-454-472-050300-
...C-MAN AND BUOY OBSERVATIONS...

STATION/POSITION TIME  TEMP    WIND        PRES    WAVE   SWELL
                       AIR SEA DIR/SP/G            HT/PER HT/PER/DIR
                 (UTC) (F)     (DEG/KT/KT) (MB)    (FT/S) (FT/S/D)
BUOY 41004       0150   79 83  260/ 12/ 14 1018.8R   3/ 9   2/ 9
BUOY 41008       0150   78 79  170/ 10/ 10 1018.8F   2/ 9   2/110/ 9
FOLLY BEACH CMAN 0200   74     220/  5/  7 1018.8F
CAPERS NEARSHORE 0108   79     270/ 12/ 17 1018.6F
FRIPP NEARSHORE  NOT AVBL


STATION/POSITION TIME  TEMP    WIND        PRES    WAVE   SWELL
                       AIR SEA DIR/SP/G            HT/PER HT/PER/DIR
                 (UTC) (F)     (DEG/KT/KT) (MB)    (FT/S) (FT/S/D)
5E ST. MARYS GA  0121      77                N/A     2/ 9
FRYING PAN BUOY  0150   81 79  210/ 16/ 17 1018.9R   4/ 5   2/130/ 9
BUOY 41025       0150   82 81  220/ 21/ 25 1016.7R   6/ 6   2/130/ 9
CAPE LOOKOUT NC  0200   80     220/ 14/ 18 1017.6R
BUOY 41002       0150   82 80  210/  8/ 10 1021.6R   5/ 6   5/260/ 6
BUOY 41010       0120   84 85  160/  8/ 10 1020.9R
ST AUGUSTINE FL  0200   77 72  180/  8/  9 1020.9F


$$


USA.gov is the U.S. government's official web portal to all federal, state and local government web resources and services.